Location: Asheville, NC
(35.6000°N, 82.5500°W)
Time: 02:29:26
(UTC-04:00)

Vanguard 2 Rocket - Pass Details

Date: 14 March 2018
Orbit: 553 x 3328 km, 32.9° (Epoch: 19 June)

Event Time Altitude Azimuth Distance (km) Brightness Sun altitude
Rises 01:17:44 0° 266° (W) 4,278 - -56.6°
Reaches altitude 10° 01:21:16 10° 249° (WSW) 3,712 - -56.7°
Maximum altitude 01:27:59 20° 207° (SSW) 3,683 - -56.8°
Drops below altitude 10° 01:37:15 10° 168° (SSE) 5,292 - -56.9°
Sets 01:43:57 0° 154° (SSE) 6,774 - -56.9°
